CW2647 Weather Reports


time (UTC)temp
C
wind
direction
speed
KPH
gust
KPH
rain 1hr
cm
rain 24hr
cm
rain mn
cm
humidity
%
barometer
mb
20260504214529 26 360 3.2 8.0 0.00 0.00 0.00 32 1013.4
20260504213027 26 68 1.6 9.7 0.00 0.00 0.00 32 1013.4
20260504211525 26 360 1.6 8.0 0.00 0.00 0.00 31 1013.4
20260504210024 26 65 1.6 9.7 0.00 0.00 0.00 31 1013.6
20260504204523 26 360 3.2 8.0 0.00 0.00 0.00 35 1013.7
20260504203024 26 61 1.6 11.3 0.00 0.00 0.00 34 1013.7
20260504201519 25 360 0.0 12.9 0.00 0.00 0.00 36 1013.8
20260504200018 26 360 3.2 12.9 0.00 0.00 0.00 36 1014.1
20260504194516 26 360 0.0 6.4 0.00 0.00 0.00 36 1014.2
20260504193013 26 360 3.2 9.7 0.00 0.00 0.00 36 1014.6
20260504191510 26 72 3.2 9.7 0.00 0.00 0.00 37 1014.8
20260504190008 25 360 1.6 9.7 0.00 0.00 0.00 34 1015.0
20260504184505 25 360 0.0 8.0 0.00 0.00 0.00 36 1015.4
20260504183107 25 360 1.6 8.0 0.00 0.00 0.00 35 1015.4
20260504181502 25 360 1.6 8.0 0.00 0.00 0.00 35 1015.6
20260504180117 24 360 1.6 12.9 0.00 0.00 0.00 37 1015.8
20260504174558 24 360 1.6 8.0 0.00 0.00 0.00 39 1015.9
20260504173056 23 360 1.6 6.4 0.00 0.00 0.00 39 1016.1
20260504171553 24 360 3.2 9.7 0.00 0.00 0.00 40 1016.3
20260504081523 7 360 0.0 0.0 0.00 0.00 0.00 84 1016.9
20260504050106 9 360 0.0 0.0 0.00 0.00 0.00 80 1017.9
20260504044601 10 360 0.0 0.0 0.00 0.00 0.00 80 1017.8
20260504043055 10 360 0.0 0.0 0.00 0.00 0.00 79 1017.8
20260504041557 10 360 0.0 0.0 0.00 0.00 0.00 79 1017.7
20260504040051 10 360 0.0 0.0 0.00 0.00 0.00 78 1017.5
20260504034549 11 360 0.0 1.6 0.00 0.00 0.00 78 1017.6
20260504033049 11 360 0.0 0.0 0.00 0.00 0.00 77 1017.6
20260504031549 11 360 0.0 1.6 0.00 0.00 0.00 77 1017.4
20260504030046 11 360 0.0 1.6 0.00 0.00 0.00 74 1017.4
20260504024601 12 360 0.0 1.6 0.00 0.00 0.00 73 1017.5
20260504023048 12 360 0.0 0.0 0.00 0.00 0.00 71 1017.3
20260504021545 13 360 0.0 0.0 0.00 0.00 0.00 67 1017.2
20260504020045 13 360 0.0 0.0 0.00 0.00 0.00 66 1017.0
20260504014546 14 360 0.0 0.0 0.00 0.00 0.00 63 1016.7
20260504013044 15 360 0.0 0.0 0.00 0.00 0.00 60 1016.5
20260504011545 15 360 0.0 0.0 0.00 0.00 0.00 57 1016.4
20260504010042 16 360 0.0 0.0 0.00 0.00 0.00 54 1016.2
20260504004547 17 360 0.0 1.6 0.00 0.00 0.00 49 1016.1
20260504003048 18 28 0.0 0.0 0.00 0.00 0.00 48 1015.9
20260504001545 19 360 0.0 0.0 0.00 0.00 0.00 46 1015.8
20260504000108 19 360 0.0 1.6 0.00 0.00 0.00 46 1015.8
20260503234550 20 360 0.0 1.6 0.00 0.00 0.00 44 1015.8
20260503233041 21 360 0.0 4.8 0.00 0.00 0.00 37 1015.7
20260503231539 21 360 0.0 6.4 0.00 0.00 0.00 36 1015.8
20260503230038 22 360 1.6 4.8 0.00 0.00 0.00 33 1015.8
20260503224538 22 360 0.0 4.8 0.00 0.00 0.00 36 1015.8
20260503223040 22 360 3.2 8.0 0.00 0.00 0.00 32 1015.8
20260503221548 22 360 1.6 8.0 0.00 0.00 0.00 35 1015.8
20260503220038 22 360 3.2 6.4 0.00 0.00 0.00 34 1016.0